Change the Weather History Date:

Thursday, November 21, 2013

  Actual Average (KRWF) Record (KRWF)
Temperature  
Mean Temperature 24 °F -  
Max Temperature 32 °F 37 °F 69 °F (2012)
Min Temperature 17 °F 20 °F -6 °F (1964)
Degree Days  
Heating Degree Days 40    
Moisture  
Dew Point 18 °F    
Average Humidity 76    
Maximum Humidity 93    
Minimum Humidity 64    
Precipitation  
Precipitation 0.00 in - - ()
Sea Level Pressure  
Sea Level Pressure 30.32 in    
Wind  
Wind Speed 18 mph (NW)    
Max Wind Speed 25 mph    
Max Gust Speed 32 mph    
Visibility 10 miles    
Events Snow    
Averages and records for this station are not official NWS values.
T = Trace of Precipitation, MM = Missing Value Source: NWS Daily Summary

Daily Weather History Graph

Daily Weather History Graph

Search for Another Location

Airport or City:

Trip Planner

Search our weather history database for the weather conditions in past years. The results will help you decide how hot, cold, wet, or windy it might be!

Date:

Astronomy

Nov. 21, 2013 Rise Set
Actual Time 7:25 AM CST 4:46 PM CST
Civil Twilight 6:53 AM CST 5:18 PM CST
Nautical Twilight 6:17 AM CST 5:54 PM CST
Astronomical Twilight 5:42 AM CST 6:29 PM CST
Moon 8:25 PM CST (11/21) 10:31 AM CST (11/21)
Length of Visible Light 10h 25m
Length of Day
9h 20m
Waning Gibbous, 85% of the Moon is Illuminated
Nov 21
Waning Gibbous
Nov 25
Last Quarter
Dec 2
New
Dec 9
First Quarter
Dec 17
Full

Hourly Weather History & Observations

Time (CST) Temp. Windchill Dew Point Humidity Pressure Visibility Wind Dir Wind Speed Gust Speed Precip Events Conditions
12:14 AM 32.0 °F 22.5 °F 30.2 °F 93% 30.02 in 7.0 mi NW 12.7 mph - N/A   Overcast
12:34 AM 32.0 °F 23.0 °F 30.2 °F 93% 30.03 in 7.0 mi NW 11.5 mph - N/A   Overcast
12:53 AM 32.0 °F 20.5 °F 28.4 °F 87% 30.04 in 10.0 mi NW 18.4 mph 21.9 mph N/A   Overcast
1:13 AM 30.2 °F 18.9 °F 26.6 °F 86% 30.05 in 7.0 mi NW 16.1 mph 26.5 mph N/A   Overcast
1:33 AM 30.2 °F 18.5 °F 26.6 °F 86% 30.06 in 7.0 mi NW 17.3 mph - N/A   Overcast
1:54 AM 30.2 °F 18.9 °F 28.4 °F 93% 30.07 in 7.0 mi NW 16.1 mph 23.0 mph N/A   Overcast
2:13 AM 30.2 °F 18.9 °F 28.4 °F 93% 30.09 in 10.0 mi NW 16.1 mph 20.7 mph N/A   Overcast
2:34 AM 28.4 °F 15.8 °F 24.8 °F 86% 30.11 in 10.0 mi NW 18.4 mph 24.2 mph N/A   Overcast
2:53 AM 28.4 °F 16.6 °F 24.8 °F 86% 30.12 in 10.0 mi NW 16.1 mph 26.5 mph N/A   Overcast
3:14 AM 28.4 °F 14.1 °F 24.8 °F 86% 30.12 in 10.0 mi NW 24.2 mph 28.8 mph N/A   Overcast
3:33 AM 26.6 °F 12.7 °F 23.0 °F 86% 30.13 in 10.0 mi NW 20.7 mph 28.8 mph N/A   Overcast
3:53 AM 26.6 °F 11.7 °F 23.0 °F 86% 30.13 in 7.0 mi NW 24.2 mph 29.9 mph N/A   Overcast
4:13 AM 26.6 °F 13.1 °F 23.0 °F 86% 30.13 in 7.0 mi NW 19.6 mph 31.1 mph N/A   Overcast
4:33 AM 24.8 °F 9.6 °F 21.2 °F 86% 30.15 in 10.0 mi NW 23.0 mph 28.8 mph N/A   Overcast
4:54 AM 23.0 °F 7.2 °F 21.2 °F 93% 30.16 in 10.0 mi NW 23.0 mph 31.1 mph N/A   Overcast
5:13 AM 23.0 °F 6.6 °F 19.4 °F 86% 30.17 in 10.0 mi NW 25.3 mph 32.2 mph N/A   Overcast
5:34 AM 23.0 °F 7.2 °F 19.4 °F 86% 30.18 in 10.0 mi NW 23.0 mph 31.1 mph N/A   Overcast
5:54 AM 23.0 °F 7.6 °F 19.4 °F 86% 30.20 in 10.0 mi NW 21.9 mph 28.8 mph N/A   Overcast
6:13 AM 23.0 °F 7.2 °F 17.6 °F 80% 30.21 in 10.0 mi NW 23.0 mph 28.8 mph N/A   Overcast
6:33 AM 23.0 °F 7.2 °F 17.6 °F 80% 30.22 in 10.0 mi NW 23.0 mph 29.9 mph N/A   Overcast
6:53 AM 23.0 °F 8.7 °F 17.6 °F 80% 30.23 in 10.0 mi NW 18.4 mph 25.3 mph N/A   Overcast
7:13 AM 21.2 °F 6.0 °F 15.8 °F 80% 30.25 in 10.0 mi NW 19.6 mph 29.9 mph N/A   Overcast
7:34 AM 21.2 °F 6.0 °F 15.8 °F 80% 30.26 in 10.0 mi NW 19.6 mph 26.5 mph N/A   Overcast
7:53 AM 21.2 °F 6.0 °F 15.8 °F 80% 30.27 in 10.0 mi NW 19.6 mph 28.8 mph N/A   Overcast
8:13 AM 21.2 °F 6.0 °F 15.8 °F 80% 30.27 in 10.0 mi NNW 19.6 mph 28.8 mph N/A   Overcast
8:34 AM 23.0 °F 7.2 °F 15.8 °F 74% 30.27 in 10.0 mi NW 23.0 mph 31.1 mph N/A   Overcast
8:54 AM 23.0 °F 8.3 °F 15.8 °F 74% 30.28 in 10.0 mi NW 19.6 mph 29.9 mph N/A   Overcast
9:14 AM 23.0 °F 7.6 °F 15.8 °F 74% 30.28 in 10.0 mi NNW 21.9 mph 31.1 mph N/A   Overcast
9:33 AM 23.0 °F 7.6 °F 17.6 °F 80% 30.28 in 10.0 mi NW 21.9 mph - N/A   Overcast
9:53 AM 23.0 °F 8.0 °F 15.8 °F 74% 30.29 in 10.0 mi NNW 20.7 mph 29.9 mph N/A   Overcast
10:13 AM 23.0 °F 7.6 °F 15.8 °F 74% 30.30 in 10.0 mi NW 21.9 mph 28.8 mph N/A   Overcast
10:33 AM 23.0 °F 6.9 °F 17.6 °F 80% 30.31 in 10.0 mi NNW 24.2 mph 28.8 mph N/A   Overcast
10:54 AM 26.6 °F 13.1 °F 17.6 °F 69% 30.33 in 10.0 mi NNW 19.6 mph 26.5 mph N/A   Overcast
11:13 AM 26.6 °F 13.4 °F 17.6 °F 69% 30.34 in 10.0 mi NNW 18.4 mph 23.0 mph N/A   Overcast
11:33 AM 28.4 °F 15.8 °F 17.6 °F 64% 30.34 in 10.0 mi NNW 18.4 mph 25.3 mph N/A   Overcast
11:54 AM 28.4 °F 15.1 °F 19.4 °F 69% 30.33 in 10.0 mi NNW 20.7 mph 25.3 mph N/A   Mostly Cloudy
12:13 PM 28.4 °F 15.1 °F 19.4 °F 69% 30.34 in 10.0 mi NNW 20.7 mph 24.2 mph N/A   Mostly Cloudy
12:34 PM 28.4 °F 15.4 °F 19.4 °F 69% 30.33 in 10.0 mi NNW 19.6 mph 25.3 mph N/A   Scattered Clouds
12:54 PM 26.6 °F 12.0 °F 19.4 °F 74% 30.34 in 10.0 mi NNW 23.0 mph 27.6 mph N/A   Mostly Cloudy
1:13 PM 28.4 °F 16.2 °F 21.2 °F 74% 30.34 in 10.0 mi North 17.3 mph - N/A   Overcast
1:33 PM 26.6 °F 13.1 °F 19.4 °F 74% 30.35 in 7.0 mi NNW 19.6 mph 26.5 mph N/A   Overcast
1:54 PM 28.4 °F 14.7 °F 21.2 °F 74% 30.35 in 10.0 mi NNW 21.9 mph 25.3 mph N/A   Overcast
2:13 PM 26.6 °F 12.7 °F 19.4 °F 74% 30.36 in 3.0 mi NNW 20.7 mph 26.5 mph N/A Snow Light Snow
2:34 PM 26.6 °F 12.7 °F 19.4 °F 74% 30.36 in 10.0 mi NNW 20.7 mph 27.6 mph N/A   Overcast
2:53 PM 28.4 °F 15.1 °F 19.4 °F 69% 30.37 in 10.0 mi NNW 20.7 mph 25.3 mph N/A   Overcast
3:13 PM 28.4 °F 15.4 °F 19.4 °F 69% 30.38 in 10.0 mi NNW 19.6 mph 26.5 mph N/A   Overcast
3:33 PM 28.4 °F 15.4 °F 19.4 °F 69% 30.39 in 10.0 mi NNW 19.6 mph 26.5 mph N/A   Overcast
3:54 PM 26.6 °F 13.8 °F 17.6 °F 69% 30.40 in 10.0 mi NNW 17.3 mph 24.2 mph N/A   Overcast
4:13 PM 26.6 °F 13.4 °F 17.6 °F 69% 30.40 in 10.0 mi NNW 18.4 mph 24.2 mph N/A   Overcast
4:34 PM 26.6 °F 13.4 °F 15.8 °F 64% 30.41 in 10.0 mi NNW 18.4 mph 24.2 mph N/A   Overcast
4:53 PM 26.6 °F 13.4 °F 15.8 °F 64% 30.43 in 10.0 mi NW 18.4 mph - N/A   Overcast
5:14 PM 26.6 °F 13.4 °F 15.8 °F 64% 30.43 in 10.0 mi NNW 18.4 mph 24.2 mph N/A   Overcast
5:33 PM 24.8 °F 11.9 °F 15.8 °F 69% 30.45 in 10.0 mi NNW 16.1 mph - N/A   Overcast
5:53 PM 23.0 °F 9.2 °F 15.8 °F 74% 30.46 in 10.0 mi NW 17.3 mph 23.0 mph N/A   Overcast
6:13 PM 23.0 °F 10.1 °F 15.8 °F 74% 30.46 in 7.0 mi NW 15.0 mph 19.6 mph N/A   Overcast
6:33 PM 23.0 °F 10.1 °F 15.8 °F 74% 30.47 in 10.0 mi NW 15.0 mph 20.7 mph N/A   Overcast
6:54 PM 23.0 °F 9.6 °F 14.0 °F 68% 30.47 in 10.0 mi NW 16.1 mph 21.9 mph N/A   Overcast
7:13 PM 21.2 °F 7.3 °F 14.0 °F 74% 30.47 in 10.0 mi NW 16.1 mph 21.9 mph N/A   Overcast
7:33 PM 21.2 °F 6.8 °F 14.0 °F 74% 30.48 in 10.0 mi NW 17.3 mph 20.7 mph N/A   Overcast
7:53 PM 21.2 °F 6.4 °F 12.2 °F 68% 30.49 in 10.0 mi NW 18.4 mph - N/A   Overcast
8:14 PM 21.2 °F 7.3 °F 12.2 °F 68% 30.50 in 10.0 mi NNW 16.1 mph 20.7 mph N/A   Overcast
8:33 PM 21.2 °F 7.3 °F 12.2 °F 68% 30.51 in 10.0 mi NNW 16.1 mph 23.0 mph N/A   Overcast
8:53 PM 21.2 °F 7.3 °F 12.2 °F 68% 30.51 in 10.0 mi NW 16.1 mph 24.2 mph N/A   Overcast
9:14 PM 21.2 °F 7.3 °F 12.2 °F 68% 30.52 in 10.0 mi NW 16.1 mph 21.9 mph N/A   Overcast
9:33 PM 21.2 °F 6.8 °F 12.2 °F 68% 30.53 in 10.0 mi NW 17.3 mph 23.0 mph N/A   Scattered Clouds
9:53 PM 19.4 °F 4.1 °F 12.2 °F 74% 30.54 in 10.0 mi NW 18.4 mph 21.9 mph N/A   Mostly Cloudy
10:14 PM 19.4 °F 5.0 °F 12.2 °F 74% 30.54 in 10.0 mi NW 16.1 mph 23.0 mph N/A   Overcast
10:33 PM 19.4 °F 5.5 °F 10.4 °F 68% 30.55 in 10.0 mi NW 15.0 mph - N/A   Mostly Cloudy
10:54 PM 17.6 °F 3.2 °F 10.4 °F 73% 30.55 in 10.0 mi NW 15.0 mph - N/A   Scattered Clouds
11:13 PM 17.6 °F 2.7 °F 10.4 °F 73% 30.56 in 10.0 mi NW 16.1 mph - N/A   Scattered Clouds
11:33 PM 17.6 °F 2.7 °F 10.4 °F 73% 30.56 in 10.0 mi NW 16.1 mph - N/A   Mostly Cloudy
11:53 PM 17.6 °F 2.7 °F 10.4 °F 73% 30.56 in 10.0 mi NW 16.1 mph - N/A   Scattered Clouds